Theta_e
306 308 309 309 309 310 313 313 312 311 311 310 310 309 308 305 301 295 288 289 286 278 279 280 280 276 277 274 269 274 274 274 269 265 263 262 265 266 266 267 270 270 266 261 258 261 265 270 273 271 267 264 263 264
305 306 308 309 309 309 309 312 312 311 311 310 310 309 307 304 301 297 288 289 288 283 280 282 281 281 281 280 277 277 276 274 273 266 264 264 263 262 266 267 275 269 272 268 268 268 268 266 265 266 264 265 265 269
303 305 306 307 307 307 308 310 312 311 310 310 309 309 306 304 301 296 288 287 286 281 279 278 273 280 282 281 282 274 278 279 274 273 268 266 266 270 265 268 273 274 277 272 271 271 267 266 268 268 269 272 274 273
302 304 305 306 306 306 306 309 311 311 310 309 309 307 305 303 300 295 289 288 287 283 276 272 283 279 281 281 283 282 281 281 278 274 270 264 265 276 272 274 272 275 276 274 273 273 271 272 273 272 271 272 272 272
302 303 304 305 305 304 304 306 310 310 309 309 308 306 304 302 299 292 289 288 287 287 274 270 278 279 282 280 283 282 284 283 280 278 269 267 274 277 277 276 275 276 275 273 273 277 276 276 275 275 273 272 272 271
301 302 302 303 303 303 304 303 309 309 308 308 307 305 303 300 299 294 288 289 286 285 277 267 272 274 277 282 282 283 283 282 277 279 276 279 280 277 273 271 276 278 279 279 278 278 276 275 275 275 273 272 271 270
301 301 302 302 302 301 303 303 307 308 308 307 305 303 301 301 295 287 286 287 287 285 279 269 266 277 278 279 279 279 281 278 278 278 276 278 279 278 275 272 276 276 275 274 275 274 271 272 271 272 270 269 267 265
300 300 301 301 301 300 302 302 306 308 307 306 303 302 300 297 293 287 286 289 284 280 278 268 264 270 278 272 270 276 274 276 270 269 276 275 274 274 270 275 276 275 273 271 273 269 273 273 271 269 267 266 264 264
300 300 300 300 300 300 300 302 306 307 305 302 300 299 294 288 285 284 291 287 282 282 271 264 267 266 276 272 271 274 274 270 265 265 268 269 259 266 272 273 276 274 277 275 267 266 268 271 269 267 265 264 265 265
299 299 299 299 299 300 300 301 306 302 300 301 295 286 281 283 292 291 285 283 283 273 268 267 263 265 273 274 271 268 271 263 262 262 262 257 262 268 272 273 274 277 274 272 268 263 261 261 267 266 266 267 268 266
299 299 299 299 300 300 301 303 301 301 300 286 281 278 284 292 286 283 278 279 274 270 268 265 266 269 273 266 264 267 260 257 259 260 259 254 259 267 264 272 272 278 274 276 269 276 274 272 270 268 266 265 264 263
298 298 299 299 300 301 302 301 301 291 287 287 284 285 283 283 281 280 274 266 265 271 264 270 270 270 269 268 264 263 259 257 262 252 257 259 269 267 260 260 270 277 274 275 266 271 270 271 271 270 268 265 263 262
298 298 298 299 299 301 301 302 298 294 294 288 285 280 282 278 277 276 269 266 260 266 268 269 270 270 268 266 260 259 260 261 254 255 263 267 268 263 259 255 263 270 274 271 262 262 267 266 267 268 266 265 262 261
298 298 298 298 299 302 302 296 297 296 288 285 282 276 279 275 275 275 274 274 270 272 272 272 267 271 264 264 260 263 255 255 256 258 266 269 267 263 257 255 265 269 273 272 270 266 267 267 266 263 267 264 264 261
297 297 298 298 300 302 298 298 300 288 291 284 284 280 276 273 264 261 264 269 269 276 270 269 270 271 264 261 258 257 257 258 262 269 269 270 263 256 256 258 264 269 271 271 267 267 266 265 265 264 263 264 265 262
297 296 294 298 297 300 299 298 288 286 285 285 282 277 272 273 266 266 266 269 272 273 269 271 268 270 265 262 259 263 264 265 271 267 269 260 259 255 257 258 261 265 270 270 267 265 264 264 265 263 260 263 263 262
295 286 296 297 295 299 298 288 287 285 284 281 275 272 269 274 275 273 272 273 275 272 272 270 270 272 262 258 261 263 267 271 270 268 260 258 260 258 256 259 260 263 264 264 263 264 264 261 260 261 261 258 261 261
288 292 296 296 298 294 287 285 285 282 274 272 273 270 265 268 272 271 272 276 275 274 272 274 268 266 264 266 267 269 268 267 260 261 260 257 254 254 256 260 259 260 261 261 261 260 260 261 262 263 263 259 258 258
290 293 297 296 294 286 283 280 281 271 265 263 262 268 265 267 270 272 275 271 272 274 272 272 272 267 269 269 269 269 262 260 266 262 258 254 254 254 255 256 258 257 261 260 260 262 262 262 263 264 261 260 262 259
296 296 296 298 293 285 278 275 279 273 266 264 262 263 266 268 269 272 273 273 275 275 274 273 274 276 275 276 270 266 264 261 261 266 265 259 254 252 255 257 258 257 256 254 254 257 256 255 254 260 260 261 261 259
293 294 294 285 279 276 273 271 269 270 266 263 265 266 265 267 271 272 272 272 274 274 273 275 276 277 271 269 265 264 263 261 264 265 266 265 255 255 254 254 255 255 255 257 260 258 259 262 260 259 260 261 259 260
287 292 284 283 276 274 271 265 268 264 265 262 265 271 269 269 270 271 272 273 273 273 273 274 274 271 272 270 265 255 256 255 255 258 258 258 256 256 255 255 258 258 258 259 259 261 259 255 257 257 259 258 260 260
291 289 284 281 276 274 267 268 268 268 266 264 270 268 268 270 268 268 271 271 270 266 267 266 265 265 265 263 255 256 255 256 258 258 257 256 254 253 255 256 259 261 261 259 259 260 260 260 260 259 259 259 260 260
288 281 279 276 274 268 272 265 263 264 265 268 270 268 267 266 266 268 269 269 268 266 262 260 262 265 265 262 260 260 258 257 259 259 255 256 259 258 256 257 258 258 258 258 259 259 259 260 261 260 260 260 260 260
283 277 277 270 267 264 261 260 259 262 265 265 262 262 263 265 266 264 264 264 262 259 257 257 258 260 261 263 262 260 256 256 256 257 260 257 257 257 259 257 257 258 258 261 261 261 261 261 261 261 261 261 261 261
274 269 272 264 262 267 264 263 262 262 262 262 261 259 258 261 264 266 261 254 256 256 255 255 254 256 259 259 258 259 259 258 256 259 261 259 259 259 259 259 260 262 261 262 263 262 261 262 262 261 261 262 262 262
271 264 260 258 263 264 263 260 261 265 263 263 262 260 264 267 266 255 256 254 253 254 255 256 256 256 256 257 258 259 259 259 258 259 260 259 259 258 260 261 262 263 262 263 264 261 262 261 261 262 262 262 262 263
260 257 266 262 262 261 264 261 262 265 263 259 264 262 266 262 256 251 253 254 253 253 254 257 259 258 258 258 258 258 259 260 261 261 260 259 259 261 260 260 261 265 262 260 261 261 261 262 262 262 262 262 262 263
260 257 263 262 261 258 256 260 265 261 258 256 261 259 251 250 250 248 250 252 253 254 253 254 256 257 259 260 261 260 259 259 259 260 260 259 259 261 261 259 259 259 259 259 265 264 263 263 263 263 262 262 262 263
261 255 263 258 259 262 258 254 258 259 257 253 253 252 251 250 251 252 253 252 251 251 252 253 254 254 254 254 255 256 258 258 258 256 255 256 257 259 259 258 258 259 259 259 260 262 268 265 266 263 262 262 262 261
254 257 258 256 254 258 256 255 258 261 261 258 255 252 251 251 252 254 254 254 254 253 254 253 253 254 253 252 252 252 253 256 257 257 258 258 258 258 258 257 258 258 258 258 259 260 262 261 261 261 261 261 261 261
256 254 258 257 256 257 258 261 261 260 260 259 255 254 253 254 252 253 255 254 253 253 253 253 252 252 253 253 253 254 255 255 256 257 257 259 258 256 258 258 258 258 259 260 260 260 260 260 260 260 260 260 260 260
256 257 257 261 261 260 260 262 262 259 258 256 254 254 253 254 252 253 255 255 254 252 252 253 253 253 253 253 254 255 256 257 257 261 263 266 263 262 258 257 259 261 260 260 260 261 260 260 260 260 259 259 259 259
Wind_Speed
18 17 16 14 9 6 16 20 23 25 26 27 26 25 25 23 18 6 3 2 3 4 1 1 2 3 1 2 3 4 3 3 4 5 4 3 3 4 1 3 3 1 3 1 2 5 5 5 3 7 4 2 3 2
20 17 15 13 11 10 8 18 23 26 27 28 28 28 27 24 19 9 4 1 2 6 3 2 3 2 1 1 3 3 3 0 3 4 1 3 1 1 3 1 1 1 5 4 5 6 4 3 4 3 4 4 2 3
23 18 17 13 12 10 8 12 21 25 27 28 29 29 28 26 21 8 4 4 4 4 3 3 1 3 1 3 2 3 0 2 1 4 4 2 3 3 3 5 2 2 3 3 3 4 4 4 2 3 5 4 4 4
24 17 17 16 12 9 4 12 20 23 27 28 31 32 30 27 22 10 4 3 3 4 4 3 1 2 4 3 3 1 4 3 4 2 3 3 3 1 1 2 3 4 6 6 3 2 1 6 7 7 5 4 6 5
23 19 14 15 12 9 3 7 19 23 25 29 32 32 32 30 22 10 4 0 0 4 4 2 2 3 4 4 1 1 1 3 1 0 3 2 2 1 2 2 6 8 10 7 7 11 6 6 12 12 11 9 8 7
24 21 15 12 10 8 8 7 16 21 24 28 31 34 33 32 23 6 1 2 3 3 6 2 3 4 4 4 3 2 3 2 1 1 1 1 2 2 2 5 8 10 7 6 6 9 3 8 12 10 10 11 9 8
27 24 19 14 11 6 8 5 10 19 23 29 34 35 35 32 9 4 3 1 6 2 5 3 2 2 1 2 2 2 3 2 1 1 1 1 1 1 3 6 7 5 3 3 9 13 5 4 8 9 8 8 7 6
26 25 22 17 13 8 7 6 8 19 25 31 34 34 32 28 17 6 4 5 2 6 4 5 1 2 1 2 1 1 2 2 3 1 1 1 2 1 9 13 3 6 9 4 9 4 4 10 11 9 6 9 8 8
26 23 23 21 14 10 8 8 10 21 31 37 37 32 11 7 3 4 11 8 3 4 4 3 6 4 2 2 2 2 1 1 2 1 1 1 3 11 15 10 14 13 16 15 7 6 4 12 15 11 9 9 8 10
23 22 21 20 16 13 10 11 23 41 43 38 13 6 4 1 18 15 5 3 4 4 4 3 1 3 3 2 1 3 1 1 2 3 1 2 10 10 12 10 7 17 10 21 10 2 3 3 14 16 18 15 12 12
22 21 20 18 17 15 17 14 45 46 30 4 5 4 2 16 3 3 4 3 0 3 2 3 4 6 1 5 4 1 3 1 2 5 4 4 9 9 5 14 10 15 16 21 2 10 13 9 20 18 12 11 9 12
22 20 19 18 16 17 17 46 47 13 4 10 14 8 3 2 3 5 3 1 2 7 2 6 4 4 3 3 5 1 4 3 5 0 4 6 11 7 3 5 9 15 15 16 3 9 11 11 14 13 12 12 10 9
22 19 16 15 10 10 43 46 30 42 28 6 6 5 4 1 4 10 11 5 2 6 7 5 5 4 3 3 5 3 5 5 1 3 7 11 5 5 5 3 4 5 12 8 4 3 7 8 10 13 12 9 11 11
21 18 16 14 10 31 41 43 44 21 9 5 6 7 5 6 7 7 7 6 3 5 10 6 5 3 3 4 3 6 1 3 2 2 11 6 7 5 4 4 7 10 13 13 11 8 10 11 9 6 11 12 14 13
20 18 16 13 7 40 38 37 26 4 5 4 5 7 7 2 4 1 0 4 2 8 8 5 4 2 3 6 2 5 4 5 8 9 6 5 5 2 3 4 6 10 11 10 8 9 9 9 11 10 9 13 13 13
18 13 7 20 8 31 35 19 5 3 3 3 3 6 2 3 2 2 1 3 3 6 2 3 5 4 2 6 5 10 9 10 8 7 5 2 3 3 5 5 4 4 8 8 9 7 7 9 10 9 7 8 10 13
15 2 17 22 9 34 18 5 2 6 2 3 3 3 2 2 5 4 4 5 8 5 3 4 5 3 5 3 4 7 9 6 5 5 3 4 4 3 4 5 5 6 7 7 7 7 6 6 8 8 11 8 8 8
4 9 15 24 16 14 4 4 4 4 4 3 4 2 2 2 4 3 2 8 6 3 3 3 7 4 7 6 6 6 6 4 4 3 3 3 3 4 3 5 4 4 5 5 5 6 7 8 9 8 7 10 7 6
6 7 22 22 11 7 4 3 4 5 2 2 1 3 3 2 2 2 4 4 4 3 5 2 2 4 6 5 4 4 3 3 3 3 3 3 3 4 3 2 4 4 6 7 8 8 7 7 6 6 7 9 9 8
14 18 11 24 6 4 5 3 3 6 3 2 4 3 2 2 2 2 6 4 3 2 1 4 5 3 3 2 2 3 2 1 2 4 4 2 1 1 3 4 3 4 4 3 3 5 4 2 1 5 7 8 8 9
10 8 21 9 5 7 5 2 4 3 4 4 4 3 3 2 3 2 3 1 2 2 3 4 3 1 1 1 1 2 2 1 2 3 2 4 2 0 0 0 3 3 3 3 6 4 5 5 3 4 6 6 3 5
4 14 6 4 5 4 5 2 5 3 5 2 2 3 4 3 3 2 2 2 4 4 2 1 1 2 3 4 4 2 4 3 2 1 3 3 2 0 2 4 4 4 4 4 3 5 3 3 4 4 4 4 6 6
9 4 4 4 6 5 1 1 4 2 6 3 2 5 1 2 2 1 2 4 3 2 3 3 3 2 3 4 3 2 3 4 3 3 3 2 2 2 0 1 2 5 5 4 3 4 4 7 7 7 6 7 7 6
9 5 4 4 5 5 3 2 3 4 4 3 3 5 3 3 2 2 5 2 2 4 5 8 6 4 1 2 2 3 5 4 3 3 2 1 2 2 1 2 2 2 3 3 4 4 5 5 8 7 8 9 8 8
6 1 4 5 3 6 6 3 2 4 4 6 5 3 3 3 3 2 4 1 3 3 6 6 5 5 3 2 1 2 2 5 4 4 3 2 2 2 2 1 2 3 2 3 4 6 6 6 8 9 10 10 12 13
7 1 2 6 3 6 7 6 6 7 4 4 2 2 1 3 3 6 1 3 3 3 5 6 6 5 2 4 4 4 5 4 4 3 2 3 3 1 2 2 2 3 3 2 3 5 6 6 7 9 8 10 12 11
4 1 3 2 4 6 5 3 2 4 5 7 7 6 5 6 7 2 2 3 3 3 4 5 4 4 5 5 5 4 5 4 4 5 5 4 3 2 2 3 3 2 1 4 4 5 7 8 7 9 8 7 9 10
4 3 7 2 4 2 7 3 4 5 4 1 5 4 7 2 2 2 2 3 4 5 5 5 3 5 4 4 4 5 5 7 8 5 3 2 0 2 5 4 4 9 3 3 3 3 4 5 6 8 8 9 9 9
3 2 3 5 6 7 4 3 3 3 2 1 4 4 3 2 1 2 3 5 5 3 4 5 5 7 5 4 3 3 4 6 8 6 5 3 3 3 7 6 5 4 2 2 4 5 6 5 6 7 7 6 6 7
2 1 6 5 5 4 3 1 2 2 3 4 6 5 4 2 1 2 3 3 4 4 4 4 5 5 5 6 6 6 2 4 5 4 4 3 4 7 6 6 5 4 3 1 1 1 5 4 7 7 8 8 8 9
2 2 7 6 5 2 1 1 3 3 4 5 5 5 5 4 1 1 5 4 4 4 5 6 5 3 4 5 4 5 5 2 7 8 6 5 5 5 5 3 4 2 2 1 1 2 5 5 6 8 9 10 11 10
5 5 5 6 3 1 1 2 3 4 3 4 3 3 3 3 3 2 3 5 4 5 6 6 6 5 5 3 3 4 9 8 8 7 10 6 4 4 4 3 3 2 2 3 4 5 6 6 5 6 8 10 11 11
3 3 3 6 4 3 2 2 3 4 4 3 3 3 3 3 4 1 1 2 3 5 6 6 6 5 6 6 5 7 9 6 10 12 12 7 4 4 2 2 2 3 4 4 5 6 7 9 8 10 11 12 12 13
Wind_Direction
230 219 215 212 209 305 207 197 192 188 185 179 177 177 170 162 149 117 107 17 109 106 69 157 341 125 88 97 134 265 39 338 35 57 104 218 121 215 74 235 151 34 19 317 68 52 341 13 325 100 198 322 140 3
219 224 211 192 201 212 289 200 197 191 185 182 176 171 167 156 143 115 105 53 68 77 131 90 96 64 15 105 151 351 127 344 157 89 12 93 87 67 145 265 267 346 171 185 167 205 240 281 162 213 170 157 219 145
214 218 210 197 192 196 234 252 200 194 186 183 175 167 161 155 150 115 113 145 77 107 56 67 263 327 45 32 263 121 191 155 356 160 156 162 116 114 149 246 173 240 172 138 78 238 237 220 239 183 183 168 139 104
207 208 212 201 175 180 204 244 201 196 188 178 169 163 157 151 140 114 128 159 93 103 118 277 176 25 306 349 246 176 131 101 120 122 103 127 130 159 264 241 237 197 137 164 245 222 273 224 211 169 156 133 120 102
207 194 196 194 178 202 207 297 197 191 186 176 169 159 150 140 123 90 86 101 306 132 151 181 23 338 308 350 318 147 148 93 77 212 79 226 196 153 310 286 242 188 176 173 207 180 164 183 171 162 159 169 160 146
206 190 184 177 173 197 204 319 204 190 185 173 162 152 139 134 125 98 93 231 185 134 105 88 260 7 341 340 348 121 46 53 78 178 189 212 185 167 226 250 264 200 189 173 171 140 79 111 144 151 158 157 159 148
205 198 184 179 170 191 226 271 223 187 182 163 154 146 138 137 120 107 174 156 149 134 97 87 27 15 331 326 355 32 37 50 26 265 247 265 180 233 232 235 251 171 118 79 122 110 54 219 181 162 136 135 116 105
200 195 187 179 173 186 251 270 244 171 162 151 138 132 118 107 113 67 11 86 79 91 69 118 297 336 331 208 111 323 79 39 20 335 318 311 330 231 249 231 220 152 123 127 179 12 158 125 122 136 118 136 146 155
193 195 191 196 192 197 245 260 212 156 137 124 118 108 86 45 96 111 131 86 57 112 149 113 148 201 198 177 135 41 128 219 276 171 191 286 260 227 225 197 185 186 176 172 118 73 107 146 158 157 148 164 166 174
184 189 193 192 194 194 227 267 151 128 125 122 99 79 109 196 135 143 28 36 353 343 39 122 63 154 164 130 121 80 345 162 241 254 5 153 256 267 246 217 188 179 167 142 121 141 127 154 173 178 191 187 183 174
176 176 177 183 191 186 188 178 134 130 128 69 92 78 99 147 104 53 105 160 231 307 142 145 156 140 268 125 178 120 180 147 55 257 138 286 273 248 249 208 188 180 174 184 146 178 180 176 175 176 185 182 165 159
162 170 177 178 184 185 183 145 140 108 113 119 107 99 123 141 92 129 162 64 183 216 201 146 172 145 140 112 103 262 121 61 240 216 67 271 252 251 222 230 185 179 175 192 154 152 152 153 170 170 168 170 169 156
155 166 172 167 166 194 157 151 114 122 116 85 81 106 153 73 147 192 185 230 234 169 178 164 130 124 120 80 74 105 98 207 58 46 235 236 263 263 232 219 193 181 167 143 147 115 131 131 140 159 160 161 151 156
156 162 172 165 178 161 162 133 138 128 91 97 148 133 182 178 225 188 187 176 177 124 142 125 114 155 139 83 139 103 250 74 38 295 238 249 241 256 231 193 138 183 179 169 172 158 160 160 166 147 160 155 157 167
157 161 160 148 160 168 150 146 142 47 94 142 149 169 196 116 69 359 302 92 26 141 124 116 97 100 85 98 53 109 56 251 212 231 234 240 238 228 215 196 180 165 175 174 156 171 173 160 165 167 163 164 167 157
151 148 153 160 139 153 156 120 58 84 76 161 104 109 92 77 60 77 0 134 182 147 90 65 113 120 172 133 119 212 143 220 241 222 236 262 260 226 204 190 191 167 172 162 153 154 148 164 172 165 123 160 170 169
141 109 159 165 172 158 149 74 78 59 143 113 90 79 101 18 120 140 163 204 139 115 167 126 131 159 99 57 253 198 209 220 225 251 244 217 230 257 204 156 167 167 162 155 149 159 151 129 128 137 169 188 169 171
84 146 168 158 170 109 32 21 86 85 76 55 91 83 53 19 84 100 129 162 116 150 165 179 126 149 184 185 244 237 240 265 231 234 248 264 252 268 207 160 157 157 149 147 141 135 138 156 171 190 163 151 132 143
148 173 153 169 140 99 97 48 38 96 78 128 97 62 69 85 10 38 159 76 65 73 113 110 142 204 226 220 233 275 271 224 283 305 261 268 250 244 181 139 136 152 156 157 161 175 177 185 189 161 152 158 180 172
151 143 170 154 105 80 87 49 51 92 121 166 64 68 108 109 194 102 94 56 65 81 155 207 221 221 207 253 213 233 242 210 118 332 318 332 294 167 183 153 171 131 114 85 89 123 127 130 211 159 163 173 168 183
122 195 125 84 65 54 75 93 66 96 119 99 194 151 97 24 62 77 109 102 47 253 241 210 237 269 120 223 312 324 303 200 207 163 221 312 338 1 190 163 119 109 147 164 189 208 199 209 155 152 159 177 160 144
116 119 92 73 85 74 76 348 113 163 74 182 73 70 87 96 112 105 122 150 221 242 205 284 48 334 326 43 10 8 322 322 326 83 62 118 91 228 242 200 135 185 204 187 178 198 192 143 128 134 142 129 132 139
119 77 73 94 92 61 2 44 83 44 116 197 81 91 75 127 86 12 198 223 243 60 25 20 335 8 341 6 341 325 17 354 325 325 301 261 272 269 327 216 172 179 209 219 171 165 166 156 159 153 140 145 144 146
49 58 80 83 83 116 138 48 36 78 70 93 158 146 142 123 163 218 235 226 79 54 23 357 352 329 195 184 44 17 1 332 324 306 270 326 317 309 211 226 219 219 186 169 161 149 152 167 158 158 160 160 164 166
110 53 90 76 31 99 84 68 54 79 126 196 121 90 168 180 178 194 229 40 29 31 3 349 357 2 351 344 53 24 48 29 3 324 337 328 315 322 348 332 261 241 181 152 169 175 180 169 175 175 175 176 173 174
103 57 138 165 143 126 165 128 167 167 144 80 85 121 109 135 147 231 126 356 0 18 0 354 343 330 333 23 332 341 335 347 324 268 285 3 327 285 308 312 342 310 188 193 152 182 187 187 189 186 184 184 180 168
105 198 307 267 107 107 83 64 96 115 125 152 172 171 180 177 219 107 116 39 335 355 323 307 291 290 296 315 315 308 306 298 261 268 299 312 321 299 295 305 310 306 314 205 200 174 185 184 184 185 183 177 180 177
161 151 130 221 79 26 119 103 130 165 154 219 109 152 183 158 148 331 354 345 309 310 306 295 275 281 294 308 304 314 318 311 294 250 231 222 232 56 17 335 314 314 307 253 215 164 173 185 177 179 180 176 173 172
97 273 94 50 59 46 47 61 75 57 33 92 101 88 97 71 325 303 311 327 322 318 359 344 342 345 343 350 2 13 355 355 8 17 34 10 345 344 357 338 324 324 332 325 233 175 174 167 164 167 162 158 151 142
338 354 92 67 71 65 34 26 79 73 54 91 108 113 90 78 288 275 332 344 1 4 350 328 324 347 358 360 349 351 24 22 25 355 326 331 315 313 320 319 319 323 334 350 123 284 173 138 135 124 131 134 137 139
213 85 77 61 87 68 123 207 195 159 94 69 43 71 103 138 199 264 22 355 340 343 354 353 338 353 2 2 358 345 331 313 332 319 289 275 278 284 289 302 294 296 336 29 66 81 110 110 129 136 141 137 141 139
30 57 111 101 104 182 216 26 61 68 60 65 79 108 123 120 77 45 357 354 355 3 349 332 329 326 327 309 287 262 259 278 294 304 296 286 281 294 311 302 302 350 49 66 86 105 106 112 117 119 120 121 121 123
67 61 82 109 110 164 170 124 78 93 53 66 54 60 50 49 93 39 303 15 340 310 314 319 306 299 297 295 297 299 306 312 305 309 317 341 335 346 341 347 32 66 83 79 86 99 99 104 105 108 109 110 110 109